Terminal Aerodrome Forecast
Issued by NWS

Home | Current Version | Previous Version | Text Only | Print | Product List | Glossary On
Versions: 1 2 3 4 5 6 7 8 9 10 11 12
487
FTUS42 TJSJ 062332
TAFJBQ
TAF
TJBQ 062332Z 0700/0724 07008KT P6SM FEW035
     FM071330 15006KT P6SM FEW025 SCT050
     FM071700 06008KT P6SM SCT030 BKN060
     FM072300 VRB04KT P6SM FEW022 SCT040
      AMD NOT SKED 0702/0711=

USA.gov is the U.S. government's official web portal to all federal, state and local government web resources and services.